CAPE
37 692 1550 2078 1566 802 536 406 476 999 603 580 530 440 296 139 133 319 187 33 7 3 5 7 11 19 23 16 7 2 7 16 44 30 36 22 38 48 35 21 14 5 94
216 723 1647 2061 1771 952 402 606 786 818 865 565 286 296 145 400 271 536 232 25 15 5 0 4 11 16 12 7 30 35 15 29 25 37 42 41 41 35 12 0 22 1 8
454 884 1355 1996 1742 1274 1084 765 872 890 554 114 454 290 332 180 220 332 67 15 16 4 0 3 15 24 19 25 57 49 28 44 44 56 38 0 0 15 2 0 2 2 4
536 1083 1060 1929 1798 1505 1295 944 802 684 673 718 682 391 496 320 327 43 7 8 5 3 1 5 13 22 16 23 34 11 18 15 10 8 0 0 1 19 9 3 10 50 78
756 1076 903 1849 1820 1576 1141 1130 863 924 769 842 545 745 587 226 80 33 4 5 5 5 7 13 16 25 18 29 13 1 10 1 3 0 0 0 0 31 61 89 104 51 32
716 963 904 1808 1719 1394 915 930 777 961 850 1083 1032 816 359 120 49 22 2 3 2 6 14 18 14 24 14 4 7 16 0 0 0 0 0 16 18 73 74 43 48 37 15
769 922 1074 1756 1743 1474 1119 1028 712 1155 1076 975 996 646 316 42 25 5 4 4 3 7 7 18 18 14 26 38 22 13 0 0 0 4 33 7 1 28 29 25 25 26 16
840 882 1273 1553 1660 1592 1160 1030 876 1317 1304 1064 859 547 13 19 9 4 9 3 6 6 4 14 21 16 27 28 9 0 0 7 9 18 5 3 54 28 15 8 20 11 14
948 825 1218 1424 1330 1329 1254 1018 983 1361 1193 952 565 186 6 15 8 6 9 4 2 5 9 9 11 24 30 23 0 3 37 19 8 4 2 2 44 16 33 16 20 28 18
897 940 905 1222 1098 1095 1089 828 815 1105 813 660 278 47 0 2 9 18 16 17 17 12 12 17 31 20 54 19 13 41 26 2 3 1 2 8 16 20 21 21 14 20 21
229 786 924 912 959 926 806 591 703 777 561 300 64 0 0 0 0 1 0 16 21 8 12 19 31 60 56 40 55 18 8 2 2 0 2 48 39 32 7 13 29 13 12
0 85 664 867 762 697 737 515 343 375 387 212 193 38 0 0 0 0 0 10 26 17 16 44 43 34 13 16 21 17 6 0 1 0 6 36 9 42 11 14 13 8 17
0 0 85 599 755 577 544 427 314 210 279 234 207 206 0 0 0 0 0 4 1 6 0 21 5 1 0 11 19 31 4 3 0 1 10 28 14 17 28 15 10 5 9
0 0 0 139 626 607 285 404 317 235 150 181 207 170 124 0 0 0 0 0 0 1 1 4 0 0 0 10 25 4 7 2 1 1 17 22 25 55 15 23 18 23 8
0 0 0 0 177 456 426 348 288 201 142 162 111 149 105 26 0 0 0 0 0 1 6 2 0 0 0 11 22 7 5 2 1 0 5 9 55 51 14 12 19 11 11
0 0 0 0 0 206 304 332 284 202 142 126 121 127 67 200 1 0 0 0 0 0 8 0 0 0 0 18 18 7 6 2 0 1 6 8 24 26 18 10 19 27 8
0 0 0 0 0 31 105 192 236 161 94 91 78 64 55 113 34 0 0 0 0 2 2 0 0 0 0 15 15 9 3 2 1 0 2 1 5 7 16 7 2 2 8
0 0 0 0 0 6 46 83 90 70 63 63 60 46 53 70 99 13 0 0 0 0 2 0 0 0 0 14 21 10 3 8 3 0 0 0 0 1 9 7 3 3 9
0 0 0 0 0 0 26 40 66 71 43 28 35 52 89 61 40 75 22 0 0 0 4 1 0 0 1 21 23 7 3 5 6 2 0 0 0 0 2 14 18 11 30
0 0 0 0 0 0 16 42 54 65 76 78 45 19 14 26 14 89 67 0 0 0 9 10 10 12 1 22 21 14 7 4 3 2 0 0 0 0 0 0 0 1 22
0 0 0 0 0 0 0 22 51 24 16 0 0 0 0 0 6 6 87 5 0 0 1 6 6 4 21 21 18 4 6 10 2 9 3 0 0 0 0 0 0 0 1
0 0 0 0 0 0 0 0 7 0 0 0 0 0 0 0 0 0 11 20 0 0 4 8 6 13 6 26 8 12 11 5 3 2 3 2 0 0 0 0 0 0 0
0 0 0 0 0 0 0 0 0 0 0 1 0 0 0 4 31 9 2 15 0 0 1 3 5 2 2 7 3 1 2 0 0 1 0 0 0 0 0 0 0 0 0
0 0 0 0 0 0 0 0 0 2 0 0 0 0 0 0 13 1 0 43 23 0 0 0 0 0 0 1 2 1 1 0 0 0 0 0 0 0 0 0 0 0 0
0 0 0 0 0 0 0 0 4 0 0 3 14 0 3 23 41 10 0 2 49 0 0 0 0 0 2 0 2 0 1 0 0 0 0 0 0 0 0 0 0 0 0
0 0 0 0 0 0 0 0 0 2 0 1 7 19 4 44 49 1 0 0 16 7 0 0 0 0 0 0 0 0 0 0 0 0 0 0 0 0 0 0 0 0 0
CIN
-303 -150 -13 -0 -19 -61 -73 -74 -56 -1 -21 -18 -20 -42 -68 -126 -126 -81 -148 -0 -0 -0 -0 -0 -0 -0 -0 -0 -0 -0 -0 -0 -134 -0 -0 -0 -0 -152 -0 -0 -4 -0 -232
-195 -157 -13 -0 -8 -50 -107 -56 -24 -12 -0 -13 -44 -38 -96 -48 -98 -49 -131 -1 -0 -0 -0 -0 -0 -0 -0 -0 -0 -0 -0 -0 -0 -3 -2 -3 -1 -0 -0 -0 -0 -0 -0
-170 -125 -41 -0 -3 -25 -33 -45 -20 -8 -15 -123 -16 -42 -40 -92 -94 -81 -143 -0 -0 -0 -0 -0 -0 -0 -0 -0 -441 -327 -0 -0 -0 -1 -6 -0 -0 -0 -0 -0 -0 -0 -0
-166 -84 -62 -0 -0 -4 -15 -31 -24 -17 -6 -0 -0 -10 -10 -50 -64 -124 -0 -0 -0 -0 -0 -0 -0 -0 -0 -0 -0 -2 -2 -9 -12 -22 -0 -0 -2 -0 -0 -0 -0 -153 -369
-139 -74 -71 -0 -0 -0 -10 -5 -16 -2 -1 -0 -2 -0 -8 -79 -175 -4 -0 -0 -0 -0 -0 -0 -0 -0 -1 -0 -0 -5 -7 -2 -6 -0 -0 -0 -0 -5 -0 -229 -306 -0 -0
-116 -53 -57 -1 -0 -0 -11 -7 -7 -1 -0 -0 -0 -1 -35 -133 -260 -4 -0 -0 -0 -0 -0 -0 -0 -2 -0 -2 -1 -4 -0 -0 -0 -0 -0 -19 -1 -8 -3 -0 -0 -0 -0
-90 -44 -16 -2 -0 -0 -5 -4 -9 -0 -0 -0 -0 -2 -39 -3 -2 -0 -0 -0 -0 -0 -0 -0 -0 -0 -0 -0 -0 -5 -0 -0 -0 -34 -5 -0 -0 -7 -2 -0 -0 -0 -0
-78 -48 -2 -2 -2 -2 -5 -8 -5 -0 -0 -0 -0 -3 -0 -0 -0 -0 -0 -0 -0 -0 -0 -0 -0 -0 -0 -0 -5 -0 -0 -25 -29 -16 -2 -28 -6 -1 -0 -0 -0 -0 -0
-33 -38 -5 -1 -3 -7 -10 -11 -8 -0 -0 -0 -4 -41 -33 -0 -0 -0 -0 -0 -0 -0 -0 -0 -0 -0 -0 -0 -0 -4 -9 -30 -0 -7 -0 -1 -2 -1 -0 -0 -0 -0 -0
-25 -16 -20 -1 -6 -5 -7 -13 -19 -6 -4 -1 -17 -137 -0 -14 -3 -0 -0 -0 -0 -0 -0 -0 -0 -0 -0 -6 -10 -4 -24 -4 -0 -0 -4 -0 -0 -0 -0 -0 -0 -0 -0
-192 -28 -15 -14 -16 -5 -10 -15 -19 -19 -10 -33 -138 -0 -0 -0 -0 -2 -0 -3 -1 -0 -0 -0 -0 -0 -5 -4 -0 -16 -6 -4 -0 -0 -0 -2 -2 -0 -0 -0 -0 -0 -0
-0 -218 -42 -23 -29 -25 -8 -14 -25 -31 -39 -64 -55 -179 -0 -0 -0 -0 -0 -10 -2 -1 -0 -0 -0 -3 -27 -17 -7 -4 -8 -1 -0 -0 -3 -2 -0 -0 -0 -0 -0 -0 -0
-0 -0 -211 -42 -19 -19 -14 -9 -24 -46 -37 -70 -77 -65 -0 -0 -0 -0 -0 -5 -1 -4 -0 -0 -17 -1 -0 -22 -7 -1 -6 -0 -0 -10 -2 -2 -1 -0 -0 -0 -0 -0 -0
-0 -0 -0 -130 -21 -8 -19 -11 -10 -17 -55 -66 -66 -96 -109 -0 -0 -0 -0 -0 -0 -2 -2 -1 -0 -0 -0 -15 -4 -0 -0 -0 -10 -1 -10 -4 -1 -0 -1 -0 -0 -1 -0
-0 -0 -0 -0 -89 -19 -8 -9 -23 -32 -61 -48 -79 -69 -102 -188 -0 -0 -0 -0 -0 -1 -2 -0 -0 -0 -0 -8 -5 -0 -0 -0 -0 -0 -0 -17 -6 -0 -1 -0 -0 -0 -0
-0 -0 -0 -0 -0 -64 -34 -15 -40 -67 -88 -73 -80 -74 -122 -77 -39 -0 -0 -0 -0 -0 -0 -0 -0 -0 -0 -5 -4 -0 -0 -0 -0 -0 -0 -8 -2 -4 -1 -0 -0 -0 -0
-0 -0 -0 -0 -0 -42 -112 -50 -54 -104 -146 -124 -118 -117 -142 -81 -147 -0 -0 -0 -0 -1 -0 -0 -0 -0 -0 -6 -5 -0 -0 -0 -0 -0 -1 -0 -0 -2 -0 -0 -0 -0 -0
-0 -0 -0 -0 -0 -31 -33 -19 -8 -5 -5 -0 -0 -1 -149 -126 -89 -22 -0 -0 -0 -0 -0 -0 -0 -0 -1 -8 -8 -0 -0 -0 -0 -0 -0 -0 -0 -0 -2 -0 -0 -0 -0
-0 -0 -0 -0 -0 -0 -25 -18 -10 -7 -5 -1 -0 -2 -60 -1 -0 -71 -13 -0 -0 -0 -0 -0 -0 -0 -4 -9 -5 -2 -0 -0 -0 -0 -0 -0 -0 -0 -0 -10 -33 -13 -4
-0 -0 -0 -0 -0 -0 -40 -14 -7 -0 -0 -0 -0 -3 -4 -10 -15 -0 -0 -0 -0 -0 -0 -0 -6 -10 -4 -9 -3 -0 -0 -0 -0 -0 -0 -0 -0 -0 -0 -0 -0 -4 -19
-0 -0 -0 -0 -0 -0 -0 -21 -1 -6 -15 -0 -0 -0 -0 -0 -32 -27 -0 -0 -0 -0 -0 -0 -0 -1 -0 -2 -4 -0 -0 -0 -0 -0 -0 -0 -0 -0 -0 -0 -0 -0 -0
-0 -0 -0 -0 -0 -0 -0 -0 -26 -0 -0 -0 -0 -0 -0 -0 -0 -0 -0 -2 -0 -0 -0 -0 -0 -2 -0 -0 -1 -0 -0 -0 -0 -0 -0 -0 -0 -0 -0 -0 -0 -0 -0
-0 -0 -0 -0 -0 -0 -0 -0 -0 -0 -0 -3 -0 -0 -0 -6 -0 -5 -0 -0 -0 -0 -0 -0 -0 -2 -2 -7 -0 -2 -0 -0 -0 -0 -0 -0 -0 -0 -0 -0 -0 -0 -0
-0 -0 -0 -0 -0 -0 -0 -0 -0 -0 -0 -0 -0 -0 -0 -0 -0 -0 -0 -7 -1 -0 -0 -0 -0 -0 -0 -1 -1 -0 -0 -0 -0 -0 -0 -0 -0 -0 -0 -0 -0 -0 -0
-0 -0 -0 -0 -0 -0 -0 -1 -55 -0 -0 -0 -0 -0 -0 -0 -0 -6 -0 -22 -0 -0 -0 -0 -0 -0 -1 -0 -0 -0 -0 -0 -0 -0 -0 -0 -0 -0 -0 -0 -0 -0 -0
-0 -0 -0 -0 -0 -0 -0 -0 -0 -0 -0 -0 -0 -0 -0 -5 -0 -0 -0 -0 -9 -0 -0 -0 -0 -0 -0 -0 -0 -0 -0 -0 -0 -0 -0 -0 -0 -0 -0 -0 -0 -0 -0
Wind_Speed
nan 10 14 16 18 15 15 16 14 9 10 12 13 15 14 14 11 9 11 nan nan nan nan nan nan nan nan nan nan nan nan nan nan nan nan nan nan nan nan nan nan nan nan
17 15 15 19 20 19 16 16 15 13 11 10 12 14 12 13 11 13 13 nan nan nan nan nan nan nan nan nan nan nan nan nan nan nan nan nan nan nan nan nan nan nan nan
17 17 18 21 22 21 19 19 16 14 13 11 11 14 13 12 13 16 nan nan nan nan nan nan nan nan nan nan nan nan nan nan nan nan nan nan nan nan nan nan nan nan nan
21 17 20 24 24 23 22 21 20 16 17 11 13 12 15 16 17 nan nan nan nan nan nan nan nan nan nan nan nan nan nan nan nan nan nan nan nan nan nan nan nan nan nan
23 23 20 24 24 25 25 24 21 19 18 15 11 12 18 20 nan nan nan nan nan nan nan nan nan nan nan nan nan nan nan nan nan nan nan nan nan nan nan nan 14 nan nan
24 24 24 24 23 24 24 23 24 18 19 16 13 15 17 21 nan nan nan nan nan nan nan nan nan nan nan nan nan nan nan nan nan nan nan nan nan nan nan nan nan nan nan
24 27 26 26 23 26 25 25 26 21 18 19 20 19 18 nan nan nan nan nan nan nan nan nan nan nan nan nan nan nan nan nan nan nan nan nan nan nan nan nan nan nan nan
23 27 29 27 29 26 25 27 25 24 22 23 24 21 nan nan nan nan nan nan nan nan nan nan nan nan nan nan nan nan nan nan nan nan nan nan nan nan nan nan nan nan nan
23 26 29 30 30 30 28 26 27 27 25 26 26 25 nan nan nan nan nan nan nan nan nan nan nan nan nan nan nan nan nan nan nan nan nan nan nan nan nan nan nan nan nan
24 24 28 31 33 33 31 28 27 30 28 28 30 nan nan nan nan nan nan nan nan nan nan nan nan nan nan nan nan nan nan nan nan nan nan nan nan nan nan nan nan nan nan
24 23 28 30 32 32 32 32 30 34 32 32 nan nan nan nan nan nan nan nan nan nan nan nan nan nan nan nan nan nan nan nan nan nan nan nan nan nan nan nan nan nan nan
nan nan 27 29 30 34 33 33 36 38 37 35 34 nan nan nan nan nan nan nan nan nan nan nan nan nan nan nan nan nan nan nan nan nan nan nan nan nan nan nan nan nan nan
nan nan nan 30 31 32 35 35 36 39 40 42 39 36 nan nan nan nan nan nan nan nan nan nan nan nan nan nan nan nan nan nan nan nan nan nan nan nan nan nan nan nan nan
nan nan nan 29 32 33 34 35 36 37 35 36 36 41 40 nan nan nan nan nan nan nan nan nan nan nan nan nan nan nan nan nan nan nan nan nan nan nan nan nan nan nan nan
nan nan nan nan 31 35 37 35 37 36 33 34 33 32 38 nan nan nan nan nan nan nan nan nan nan nan nan nan nan nan nan nan nan nan nan nan nan nan nan nan nan nan nan
nan nan nan nan nan 37 38 39 37 38 38 35 34 34 nan 35 nan nan nan nan nan nan nan nan nan nan nan nan nan nan nan nan nan nan nan nan nan nan nan nan nan nan nan
nan nan nan nan nan nan 39 41 41 41 nan nan nan nan nan 42 nan nan nan nan nan nan nan nan nan nan nan nan nan nan nan nan nan nan nan nan nan nan nan nan nan nan nan
nan nan nan nan nan nan nan nan nan nan nan nan nan nan nan nan nan nan nan nan nan nan nan nan nan nan nan nan nan nan nan nan nan nan nan nan nan nan nan nan nan nan nan
nan nan nan nan nan nan nan nan nan nan nan nan nan nan nan nan nan nan nan nan nan nan nan nan nan nan nan nan nan nan nan nan nan nan nan nan nan nan nan nan nan nan nan
nan nan nan nan nan nan nan nan nan nan nan nan nan nan nan nan nan nan nan nan nan nan nan nan nan nan nan nan nan nan nan nan nan nan nan nan nan nan nan nan nan nan nan
nan nan nan nan nan nan nan nan nan nan nan nan nan nan nan nan nan nan nan nan nan nan nan nan nan nan nan nan nan nan nan nan nan nan nan nan nan nan nan nan nan nan nan
nan nan nan nan nan nan nan nan nan nan nan nan nan nan nan nan nan nan nan nan nan nan nan nan nan nan nan nan nan nan nan nan nan nan nan nan nan nan nan nan nan nan nan
nan nan nan nan nan nan nan nan nan nan nan nan nan nan nan nan nan nan nan nan nan nan nan nan nan nan nan nan nan nan nan nan nan nan nan nan nan nan nan nan nan nan nan
nan nan nan nan nan nan nan nan nan nan nan nan nan nan nan nan nan nan nan nan nan nan nan nan nan nan nan nan nan nan nan nan nan nan nan nan nan nan nan nan nan nan nan
nan nan nan nan nan nan nan nan nan nan nan nan nan nan nan nan nan nan nan nan nan nan nan nan nan nan nan nan nan nan nan nan nan nan nan nan nan nan nan nan nan nan nan
nan nan nan nan nan nan nan nan nan nan nan nan nan nan nan nan nan nan nan nan nan nan nan nan nan nan nan nan nan nan nan nan nan nan nan nan nan nan nan nan nan nan nan
Wind_Direction
nan 254 297 300 300 299 292 293 291 282 273 247 245 251 250 249 254 255 246 nan nan nan nan nan nan nan nan nan nan nan nan nan nan nan nan nan nan nan nan nan nan nan nan
266 260 281 287 290 293 294 286 284 284 270 262 250 248 247 250 250 236 228 nan nan nan nan nan nan nan nan nan nan nan nan nan nan nan nan nan nan nan nan nan nan nan nan
261 258 260 275 279 283 286 283 279 279 281 281 261 249 241 239 238 235 nan nan nan nan nan nan nan nan nan nan nan nan nan nan nan nan nan nan nan nan nan nan nan nan nan
265 254 256 275 275 277 277 283 282 280 279 276 266 246 233 237 234 nan nan nan nan nan nan nan nan nan nan nan nan nan nan nan nan nan nan nan nan nan nan nan nan nan nan
271 254 244 274 273 275 274 277 280 284 282 280 273 250 239 236 nan nan nan nan nan nan nan nan nan nan nan nan nan nan nan nan nan nan nan nan nan nan nan nan 327 nan nan
274 258 247 262 270 269 273 267 274 276 283 282 281 265 246 236 nan nan nan nan nan nan nan nan nan nan nan nan nan nan nan nan nan nan nan nan nan nan nan nan nan nan nan
283 271 256 256 257 266 272 268 266 263 271 281 275 265 254 nan nan nan nan nan nan nan nan nan nan nan nan nan nan nan nan nan nan nan nan nan nan nan nan nan nan nan nan
290 276 267 260 256 254 261 264 264 259 260 266 269 268 nan nan nan nan nan nan nan nan nan nan nan nan nan nan nan nan nan nan nan nan nan nan nan nan nan nan nan nan nan
285 275 269 260 250 251 251 255 259 262 260 264 266 264 nan nan nan nan nan nan nan nan nan nan nan nan nan nan nan nan nan nan nan nan nan nan nan nan nan nan nan nan nan
286 271 266 259 254 247 243 246 251 258 253 254 256 nan nan nan nan nan nan nan nan nan nan nan nan nan nan nan nan nan nan nan nan nan nan nan nan nan nan nan nan nan nan
279 270 261 261 259 255 245 243 244 254 254 251 nan nan nan nan nan nan nan nan nan nan nan nan nan nan nan nan nan nan nan nan nan nan nan nan nan nan nan nan nan nan nan
nan nan 263 264 260 258 249 245 244 242 240 241 242 nan nan nan nan nan nan nan nan nan nan nan nan nan nan nan nan nan nan nan nan nan nan nan nan nan nan nan nan nan nan
nan nan nan 263 262 258 253 248 243 245 244 239 243 244 nan nan nan nan nan nan nan nan nan nan nan nan nan nan nan nan nan nan nan nan nan nan nan nan nan nan nan nan nan
nan nan nan 253 260 258 253 251 248 247 251 251 246 249 244 nan nan nan nan nan nan nan nan nan nan nan nan nan nan nan nan nan nan nan nan nan nan nan nan nan nan nan nan
nan nan nan nan 255 257 258 254 252 253 250 250 252 255 251 nan nan nan nan nan nan nan nan nan nan nan nan nan nan nan nan nan nan nan nan nan nan nan nan nan nan nan nan
nan nan nan nan nan 254 256 257 253 250 254 250 253 256 nan 253 nan nan nan nan nan nan nan nan nan nan nan nan nan nan nan nan nan nan nan nan nan nan nan nan nan nan nan
nan nan nan nan nan nan 253 254 254 254 nan nan nan nan nan 264 nan nan nan nan nan nan nan nan nan nan nan nan nan nan nan nan nan nan nan nan nan nan nan nan nan nan nan
nan nan nan nan nan nan nan nan nan nan nan nan nan nan nan nan nan nan nan nan nan nan nan nan nan nan nan nan nan nan nan nan nan nan nan nan nan nan nan nan nan nan nan
nan nan nan nan nan nan nan nan nan nan nan nan nan nan nan nan nan nan nan nan nan nan nan nan nan nan nan nan nan nan nan nan nan nan nan nan nan nan nan nan nan nan nan
nan nan nan nan nan nan nan nan nan nan nan nan nan nan nan nan nan nan nan nan nan nan nan nan nan nan nan nan nan nan nan nan nan nan nan nan nan nan nan nan nan nan nan
nan nan nan nan nan nan nan nan nan nan nan nan nan nan nan nan nan nan nan nan nan nan nan nan nan nan nan nan nan nan nan nan nan nan nan nan nan nan nan nan nan nan nan
nan nan nan nan nan nan nan nan nan nan nan nan nan nan nan nan nan nan nan nan nan nan nan nan nan nan nan nan nan nan nan nan nan nan nan nan nan nan nan nan nan nan nan
nan nan nan nan nan nan nan nan nan nan nan nan nan nan nan nan nan nan nan nan nan nan nan nan nan nan nan nan nan nan nan nan nan nan nan nan nan nan nan nan nan nan nan
nan nan nan nan nan nan nan nan nan nan nan nan nan nan nan nan nan nan nan nan nan nan nan nan nan nan nan nan nan nan nan nan nan nan nan nan nan nan nan nan nan nan nan
nan nan nan nan nan nan nan nan nan nan nan nan nan nan nan nan nan nan nan nan nan nan nan nan nan nan nan nan nan nan nan nan nan nan nan nan nan nan nan nan nan nan nan
nan nan nan nan nan nan nan nan nan nan nan nan nan nan nan nan nan nan nan nan nan nan nan nan nan nan nan nan nan nan nan nan nan nan nan nan nan nan nan nan nan nan nan